Regional Weather Roundup
Issued by NWS Charleston, SC

Current Version | Previous Version | Graphics & Text | Print | Product List | Glossary On
Versions: 1 2 3 4 5 6 7 8 9 10 11 12 13 14 15 16 17 18 19 20 21 22 23 24 25 26 27 28 29 30 31 32 33 34 35 36 37 38 39 40 41 42 43 44 45 46 47 48 49 50
000
ASUS42 KCHS 040012
RWRCHS

REGIONAL WEATHER ROUNDUP
NATIONAL WEATHER SERVICE CHARLESTON SC
800 PM EDT THU SEP 03 2015

NOTE: "FAIR" INDICATES FEW OR NO CLOUDS BELOW 12,000 FEET WITH NO
SIGNIFICANT WEATHER AND/OR OBSTRUCTIONS TO VISIBILITY.

NOT ALL STATIONS ARE QUALITY CONTROLLED BY THE NATIONAL
WEATHER SERVICE. USE DATA WITH CAUTION...ESPECIALLY
DEWPOINT OBSERVATIONS.

SCZ027-030-031-034>040-042>050-040100-
...SOUTHEAST SOUTH CAROLINA...

CITY           SKY/WX    TMP DP  RH WIND       PRES   REMARKS
N CHARLESTON   CLOUDY    80  74  81 SE3       29.90R
6HR MIN TEMP:  80; 6HR MAX TEMP:  90; 6HR PCP:  0.01;

WATERFRONT PRK   N/A     82  76  82 VRB3      29.88R
MOUNT PLEASANT LGT RAIN  81  75  83 CALM      29.91R
JOHNS ISLAND   MOCLDY    81  77  89 CALM      29.90R
PINOPOLIS        N/A     84  75  74 VRB2      29.82S HX  92
MONCKS CORNER  FAIR      82  73  74 CALM      29.90R
SUMMERVILLE    FAIR      81  75  83 CALM      29.90S
BEAUFORT MCAS  MOCLDY    82  76  81 CALM      29.89R
6HR MIN TEMP:  82; 6HR MAX TEMP:  91;

BEAUFORT ARPT  FAIR      81  75  83 CALM      29.89S
HILTON HEAD IS MOCLDY    81  75  83 SE3       29.91R
WALTERBORO     PTCLDY    82  73  74 CALM      29.90S
ALLENDALE      FAIR      82  77  83 CALM      29.88S HX  91

...SOUTHERN MIDLANDS AND PEE DEE...

CITY           SKY/WX    TMP DP  RH WIND       PRES   REMARKS
GEORGETOWN     NOT AVBL
KINGSTREE      NOT AVBL
ORANGEBURG     MOCLDY    82  73  74 CALM      29.90S
6HR MIN TEMP:  81; 6HR MAX TEMP:  92;

BARNWELL       FAIR      84  75  74 CALM      29.90S HX  92
AIKEN          FAIR      81  68  65 W5        29.94S
MANNING        FAIR      81  73  78 CALM      29.90R
COLUMBIA       MOCLDY    84  72  67 SW6       29.89S
6HR MIN TEMP:  84; 6HR MAX TEMP:  92;

SUMTER         CLOUDY    82  72  71 SW2       29.87R
6HR MIN TEMP:  82; 6HR MAX TEMP:  93; 6HR PCP: TRACE;

FLORENCE       CLOUDY    85  75  72 SW14      29.88R HX  93
6HR MIN TEMP:  84; 6HR MAX TEMP:  93;

MYRTLE BEACH   MOCLDY    75  70  83 SW7       29.90F
N MYRTLE BEACH MOCLDY    74  71  91 CALM      29.88F
6HR MIN TEMP:  71; 6HR MAX TEMP:  88; 6HR PCP:  2.01;


$$

GAZ063-065-086>088-099>101-113>116-118-119-134>141-150-040100-
...SOUTHEAST GEORGIA...

CITY           SKY/WX    TMP DP  RH WIND       PRES   REMARKS
SAVANNAH ARPT  CLOUDY    83  76  79 S6        29.90R HX  91
6HR MIN TEMP:  83; 6HR MAX TEMP:  91;

HUNTER AAF     CLOUDY    82  80  96 S3        29.87S HX  93
6HR MIN TEMP:  82; 6HR MAX TEMP:  89; 6HR PCP: TRACE;

FORT STEWART   MOCLDY    83  77  84 CALM      29.88R HX  91
6HR MIN TEMP:  83; 6HR MAX TEMP:  89;

STATESBORO     CLOUDY    81  78  91 CALM      29.90S
SYLVANIA       NOT AVBL
CLAXTON        NOT AVBL

...CSRA...CENTRAL AND FAR SOUTHEAST GEORGIA...

CITY           SKY/WX    TMP DP  RH WIND       PRES   REMARKS
THOMSON        MOCLDY    83  80  89 CALM      29.95S HX  96
AUGUSTA-BUSH   MOCLDY    81  76  84 CALM      29.88F
6HR MIN TEMP:  81; 6HR MAX TEMP:  91;

AUGUSTA-DANIEL MOCLDY    86  73  65 N3        29.91S HX  93
SWAINSBORO     FAIR      82  75  78 CALM      29.92S
VIDALIA        MOCLDY    81  77  89 CALM      29.91F
EASTMAN        FAIR      81  81 100 CALM      29.94S HX  91
HAZLEHURST     FAIR      84  79  86 CALM      29.91S HX  95
ALMA           CLOUDY    82  77  84 S5        29.91S HX  90
6HR MIN TEMP:  82; 6HR MAX TEMP:  89;

WAYCROSS       CLOUDY    83  82  96 CALM      29.91S HX  99
JESUP          FAIR      82  81  94 CALM      29.91R HX  95
BAXLEY         FAIR      82  79  89 CALM      29.91S HX  93
BRUNSWICK      CLOUDY    79  77  94 CALM      29.91S
SAINT SIMONS   LGT RAIN  77  74  90 CALM      29.90S
6HR MIN TEMP:  77; 6HR MAX TEMP:  89; 6HR PCP:  0.04;


$$

SCZ027-028-034-036>038-045-046-048>050-GAZ119-141-040100-
...LAKE AND SUPPLEMENTAL COASTAL OBSERVATIONS...

STATION/POSITION TIME  TEMP    WIND        PRES    WAVE   SWELL
                       AIR SEA DIR/SP/G            HT/PER HT/PER/DIR
                 (UTC) (F)     (DEG/KT/KT) (MB)    (FT/S) (FT/S/D)
UPR LAKE MARION  NOT AVBL
WINYAH BAY       2245   82     200/  5     1012.0
LAKE MURRAY      2300   85     280/  3/  4 1011.5S
ACE BASIN NERRS  NOT AVBL
FORT PULASKI     2300   82 83  120/  3/  4 1012.6F
SAPELO ISLAND    2300   82      40/  1     1012.0S

$$

ANZ835-935-AMZ111-154-330-350-352-354-370-450-454-472-040100-
...C-MAN AND BUOY OBSERVATIONS...

STATION/POSITION TIME  TEMP    WIND        PRES    WAVE   SWELL
                       AIR SEA DIR/SP/G            HT/PER HT/PER/DIR
                 (UTC) (F)     (DEG/KT/KT) (MB)    (FT/S) (FT/S/D)
BUOY 41004       2350   81 84  170/  6/  8 1012.0R   2/ 8   2/ 8
BUOY 41008       2350   81 84   20/  4/  4 1012.7R   2/ 9   2/120/ 9
FOLLY BEACH CMAN 2300   81     200/  6/  8 1012.4R
CAPERS NEARSHORE 2308   82     200/  8/ 12 1012.6R
FRIPP NEARSHORE  NOT AVBL


STATION/POSITION TIME  TEMP    WIND        PRES    WAVE   SWELL
                       AIR SEA DIR/SP/G            HT/PER HT/PER/DIR
                 (UTC) (F)     (DEG/KT/KT) (MB)    (FT/S) (FT/S/D)
5E ST. MARYS GA  2321      85                N/A     2/13
FRYING PAN BUOY  2350   82 82  250/ 10/ 12 1012.3F   2/ 3   2/ 90/ 8
BUOY 41025       2350   81 86  270/  4/  6 1011.9S   1/12   2/ 20/12
CAPE LOOKOUT NC  2300   80     220/  4/  5 1011.8R
BUOY 41002       2350   83 84  310/  6/  8 1012.2R   2/ 9   2/ 50/ 9
BUOY 41010       2320   84 86  230/  4/  6 1012.7F
ST AUGUSTINE FL  0000   83 85   50/  3/  3 1013.2F


$$



USA.gov is the U.S. government's official web portal to all federal, state and local government web resources and services.